{"data":{"norad_id":52837,"intl_designator":"2022-062H","name":"STARLINK-4036","alt_names":[],"object_type":"PAYLOAD","status":"ACTIVE","operator":null,"country":"US","launch_date":"2022-06-17","launch_site_code":"AFETR","launch_vehicle":null,"mission":null,"orbit_class":"UNKNOWN","rcs_meters":null,"size_class":null,"mass_kg":null,"dimensions":null,"purposes":["comms"],"wikipedia_slug":null,"has_3d_model":false,"image_url":null,"decayed_at":null,"tle_current":{"epoch":"2026-09-19T22:32:06.798048Z","epoch_age_seconds":114884,"freshness":"FRESH","line1":"1 52837U 22062H   26262.93896757  .00001095  00000+0  43537-4 0  9999","line2":"2 52837  53.1587 230.6748 0001239  91.8175 268.2970 15.34395410235269","mean_motion":15.3439541,"eccentricity":0.0001239,"inclination_deg":53.1587,"raan_deg":230.6748,"arg_perigee_deg":91.8175,"mean_anomaly_deg":268.297,"bstar":4.3537e-5,"rev_number":23526,"period_min":93.848038818104,"perigee_km":461.86930089235,"apogee_km":463.56446448448,"semimajor_km":6840.8538826884,"source":"CELESTRAK","updated_at":"2026-09-20T09:00:40.111932Z"}}}